Вернуться в каталог

SL-16 DEB

АктивенLEO
NORAD 22437·DEBRIS·🇷🇺 Russia

Запущен Dec 25, 1992 с Baikonur Cosmodrome

Loading…

Ближайшие Пролёты (ближайшие 24 часа)

TLE

СвежийSource: Space-Track

Эпоха: Sep 13, 2026, 20:19 UTC

1 22437U 92093EE  26256.84664920  .00001448  00000-0  34089-3 0  9995
2 22437  71.3293 294.4044 0032877  36.7830 323.5563 14.55672635761810

Отслеживайте SL-16 DEB в реальном времени с AllMySat

Download on the App Store